User: anonymous   Login
Location: Columbia
(38.9520°N, 92.3340°W)
Time: 04:39:22
(UTC-05:00)
Language:

CZ-2C R/B - Orbit

View from above orbital plane
View from above orbital plane
View from above satellite
View from above satellite

Ground track
Ground track

The orbit data is extracted from the following two-line orbital elements,

1 28480U 04046B   16149.34609008  .00000060  00000-0  38782-4 0  9995
2 28480  98.1800 264.5627 0140841 280.4372 143.0274 14.25592076599405
Epoch (UTC): 28 May 2016 08:18:22
Eccentricity: 0.0140841
inclination: 98.1800°
perigee height: 705 km
apogee height: 907 km
right ascension of ascending node: 264.5627°
argument of perigee: 280.4372°
revolutions per day: 14.25592076
mean anomaly at epoch: 143.0274°
orbit number at epoch: 59940

The dashed part of the orbit path shows where the satellite is in the earth's shadow,  

DLR